Location: Waco, TX
(31.5480°N, 97.1670°W)
Time: 08:48:36
(UTC-05:00)

Tiangong 2 - Visible Passes

Search period start: 18 June 2018 00:00
Search period end: 28 June 2018 00:00
Orbit: 292 x 298 km, 42.8° (Epoch: 17 June)

Date Brightness Start Highest point End Pass type
(mag) Time Alt. Az. Time Alt. Az. Time Alt. Az.
24 Jun 2.1 05:05:31 22° SSE 05:05:59 24° SE 05:08:09 10° E visible
25 Jun 0.5 05:11:13 40° SW 05:11:57 69° SE 05:14:30 10° ENE visible
26 Jun 1.3 05:16:49 25° W 05:17:55 42° NNW 05:20:23 10° NE visible
27 Jun 2.6 05:22:17 13° WNW 05:23:56 21° NNW 05:25:59 10° NNE visible
